Location: Tamazert
(32.6352°N, 5.2072°W)
Time: 21:51:46
(UTC+00:00)

IDEFIX/ARIANE 42P - Pass Details

Date: 22 May 2022
Orbit: 785 x 802 km, 98.4° (Epoch: 24 June)

Event Time Altitude Azimuth Distance (km) Brightness Sun altitude
Rises 03:37:08 0° 354° (N) 3,316 6.3 -18.7°
Reaches altitude 10° 03:40:00 10° 339° (NNW) 2,382 5.3 -18.2°
Maximum altitude 03:43:48 21° 293° (WNW) 1,749 4.1 -17.6°
Enters shadow 03:45:00 19° 274° (W) 1,821 4.0 -17.4°
